Location: Acheville
(50.3840°N, 2.8827°E)
Time: 12:54:32
(UTC+00:00)

IRS-1C Rocket - Pass Details

Date: 24 October 2021
Orbit: 801 x 805 km, 98.9° (Epoch: 05 December)

Event Time Altitude Azimuth Distance (km) Brightness Sun altitude
Exits shadow 18:45:21 - 164° (SSE) 2,600 6.5 -20.8°
Reaches altitude 10° 18:45:55 10° 164° (SSE) 2,375 6.3 -20.9°
Maximum altitude 18:51:11 87° 252° (WSW) 812 4.0 -21.7°
Drops below altitude 10° 18:56:30 10° 344° (NNW) 2,396 6.8 -22.6°
Sets 18:58:51 0° 345° (NNW) 3,331 7.6 -22.9°
